[[{"header":{"parameterUnit":"m.s-1","parameterCategory":1,"la1":30.2991,"la2":30.254,"lo1":-89.0895,"lo2":-89.0444,"dy":0.0017,"dx":0.0017,"nx":28,"ny":28,"refTime":"2023-07-24T21:00:00:Z","depth":0,"parameterNumber":2,"parameterNumberName":"U-component_of_WINDS"},"data":[0,0,0,0,0,0,0,0,0,0,0,0,0,0,0,0,0,0,0,0,0,0,0,0,0,0,0,0,0,0,0,0,0,0,0,0,0,0,0,0,0,0,0,0,0,0,0,0,0,0,0,0,0,0,0,0,0,0,-1.8003,-1.8002,0,-1.7939,-1.7938,-1.7938,-1.7868,-1.7867,-1.7866,-1.7865,-1.7799,-1.7798,-1.7797,0,0,0,0,0,0,0,0,0,0,0,0,0,-1.8065,-1.8064,-1.8003,-1.8002,-1.8002,-1.7939,-1.7938,-1.7937,-1.7868,-1.7867,-1.7866,-1.7865,-1.7799,-1.7798,-1.7797,0,0,0,0,0,0,0,0,0,0,0,0,0,-1.8023,-1.8064,-1.8003,-1.796,-1.7955,-1.7939,-1.7938,-1.7937,-1.7869,-1.7867,-1.7866,-1.7864,-1.7799,-1.7798,-1.7797,-1.7819,0,0,-1.7793,-1.7792,0,0,0,0,0,0,0,0,-1.8026,-1.8021,-1.7967,-1.7963,-1.7957,-1.791,-1.7936,-1.7897,-1.7869,-1.7901,-1.7865,-1.7863,-1.7837,-1.7832,-1.7824,-1.7816,-1.7813,-1.7793,-1.7792,-1.7791,-1.7791,0,0,0,0,0,0,0,-1.8029,-1.8023,-1.7978,-1.7966,-1.796,-1.7943,-1.7935,-1.7928,-1.7878,-1.7898,-1.7893,-1.7887,-1.7834,-1.7825,-1.7822,-1.7812,-1.7793,-1.7792,-1.7791,-1.779,-1.782,-1.7821,0,0,0,0,0,0,-1.8038,-1.8026,-1.798,-1.7976,-1.7989,-1.7943,-1.7935,-1.7927,-1.7878,-1.7869,-1.7888,-1.7884,-1.7828,-1.7823,-1.7819,-1.7843,-1.7791,-1.779,-1.779,-1.7818,-1.782,-1.7822,0,0,0,0,0,0,-1.804,-1.8035,-1.7982,-1.8,-1.7992,-1.7944,-1.7935,-1.7926,-1.7917,-1.787,-1.7861,-1.7888,-1.7827,-1.7821,-1.782,-1.7839,-1.779,-1.7789,-1.7816,-1.7819,-1.7821,-1.789,0,0,0,0,0,0,-1.8042,-1.8036,-1.8044,-1.8,-1.7991,-1.7985,-1.7937,-1.7926,-1.7915,-1.7909,-1.7868,-1.786,-1.7825,-1.7822,-1.7818,-1.7837,-1.7788,-1.7814,-1.7817,-1.782,-1.7886,-1.7894,-1.7902,0,0,0,0,0,-1.8045,-1.8065,-1.8045,-1.8039,-1.8,-1.7986,-1.798,-1.7941,-1.7917,-1.7925,-1.7895,-1.7861,-1.7837,-1.7822,-1.7818,-1.7836,-1.7813,-1.7817,-1.782,-1.7882,-1.7893,-1.7901,0,0,0,0,0,0,-1.8112,-1.8059,-1.8035,-1.8043,-1.802,-1.7974,-1.7983,-1.7953,-1.7935,-1.793,-1.7881,-1.7872,-1.7877,-1.7856,-1.784,-1.7855,-1.782,-1.7823,-1.7869,-1.7879,-1.7887,-1.7892,-1.7786,0,0,0,0,0,-1.8128,-1.8121,-1.8075,-1.8086,-1.8075,-1.8031,-1.8023,-1.7995,-1.7968,-1.7958,-1.7928,-1.7903,-1.7891,-1.7883,-1.7869,-1.7882,-1.7872,-1.7892,-1.79,-1.7907,-1.791,-1.7917,-1.7926,-1.7833,-1.7833,-1.7833,0,0,-1.816,-1.813,-1.8129,-1.8099,-1.8077,-1.8071,-1.8023,-1.8019,-1.8014,-1.7957,-1.7955,-1.7932,-1.7901,-1.7908,-1.7909,-1.7891,-1.7934,-1.7911,-1.7917,-1.7917,-1.7921,-1.793,-1.7938,-1.7835,-1.7835,-1.7835,0,0,-1.8217,-1.8193,-1.8201,-1.818,-1.8149,-1.8119,-1.8121,-1.808,-1.8063,-1.806,-1.8018,-1.8011,-1.7989,-1.797,-1.7957,-1.8007,-1.7976,-1.8004,-1.8046,-1.8053,-1.806,-1.8067,-1.8086,-1.8094,-1.8007,-1.8007,-1.8007,0,-1.8262,-1.8251,-1.8208,-1.8207,-1.8195,-1.8143,-1.8151,-1.8133,-1.8098,-1.8091,-1.807,-1.8043,-1.8019,-1.8021,-1.8034,-1.8024,-1.8025,-1.8009,-1.8063,-1.8069,-1.8074,-1.8092,-1.8099,-1.8011,-1.801,-1.801,-1.801,0,-1.8308,-1.8302,-1.8312,-1.828,-1.8269,-1.8272,-1.8229,-1.8223,-1.8196,-1.8169,-1.8167,-1.8135,-1.8114,-1.8112,-1.8085,-1.8111,-1.81,-1.8072,-1.8036,-1.8087,-1.8104,-1.811,-1.8016,-1.8015,-1.8014,-1.8013,0,0,-1.8407,-1.8352,-1.8356,-1.8342,-1.8303,-1.8297,-1.8298,-1.8278,-1.8274,-1.8252,-1.8252,-1.8235,-1.8209,-1.8195,-1.8164,-1.817,-1.8214,-1.8141,-1.814,-1.8157,-1.8243,-1.8266,-1.8274,-1.8192,-1.8193,-1.8194,-1.8246,0,-1.8458,-1.8457,-1.8418,-1.8428,-1.8422,-1.8373,-1.8374,-1.835,-1.8325,-1.8316,-1.8287,-1.8277,-1.8242,-1.8234,-1.8237,-1.8208,-1.8231,-1.8203,-1.8193,-1.8193,-1.8204,-1.8282,-1.8306,-1.8357,-1.8252,-1.8253,-1.8253,0,-1.8518,-1.85,-1.851,-1.8472,-1.8468,-1.8469,-1.8448,-1.844,-1.8413,-1.8394,-1.8378,-1.8344,-1.8342,-1.8307,-1.8305,-1.8287,-1.828,-1.8265,-1.8266,-1.8265,-1.8228,-1.8285,-1.8371,-1.838,-1.8262,-1.8262,-1.8261,0,-1.8591,-1.8569,-1.8572,-1.8561,-1.8517,-1.8519,-1.85,-1.8471,-1.8462,-1.8443,-1.8437,-1.8418,-1.8408,-1.8395,-1.8356,-1.8334,-1.8359,-1.832,-1.8344,-1.8345,-1.8353,-1.8353,-1.8441,-1.8345,-1.8345,-1.8345,-1.8345,0,-1.8654,-1.8662,-1.8605,-1.8607,-1.8615,-1.857,-1.8579,-1.8556,-1.853,-1.8527,-1.8482,-1.8481,-1.8429,-1.8422,-1.8391,-1.8395,-1.839,-1.8375,-1.8368,-1.8381,-1.8383,-1.8377,-1.8373,-1.8347,-1.8347,-1.8346,-1.8346,0,-1.8738,-1.8699,-1.87,-1.8658,-1.8647,-1.8655,-1.8619,-1.862,-1.8591,-1.8588,-1.8585,-1.854,-1.8529,-1.8489,-1.8468,-1.8447,-1.8461,-1.8445,-1.8471,-1.8466,-1.8493,-1.8492,-1.8582,-1.8592,-1.8488,-1.8489,-1.849,0,-1.8781,-1.8786,-1.8745,-1.874,-1.8724,-1.8716,-1.8707,-1.8662,-1.8654,-1.8623,-1.8628,-1.8613,-1.8599,-1.8584,-1.855,-1.8533,-1.8517,-1.855,-1.8515,-1.8528,-1.852,-1.8521,-1.8522,-1.8558,-1.856,-1.8561,-1.8562,0,-1.8863,-1.8844,-1.8832,-1.8814,-1.8805,-1.8788,-1.8769,-1.8767,-1.8718,-1.8711,-1.8699,-1.8689,-1.8667,-1.8654,-1.8632,-1.8613,-1.858,-1.8573,-1.8578,-1.8592,-1.8608,-1.8602,-1.8494,-1.8571,-1.857,-1.857,-1.8569,-1.8569,-1.8929,-1.8932,-1.8904,-1.8893,-1.8874,-1.8857,-1.8856,-1.8828,-1.8817,-1.8797,-1.8771,-1.8763,-1.8735,-1.8703,-1.8686,-1.8679,-1.8661,-1.8668,-1.867,-1.8673,-1.868,-1.8608,-1.8675,-1.8674,-1.8674,-1.8674,-1.8674,0,-1.901,-1.899,-1.898,-1.8955,-1.8946,-1.8915,-1.8893,-1.8888,-1.8882,-1.8859,-1.8846,-1.8833,-1.882,-1.8785,-1.8768,-1.877,-1.8754,-1.8767,-1.8768,-1.8764,-1.8696,-1.8694,-1.878,-1.878,-1.878,-1.878,-1.878,-1.878,-1.9052,-1.9056,-1.9034,-1.9028,-1.9007,-1.8999,-1.899,-1.8974,-1.8956,-1.8944,-1.8933,-1.891,-1.8883,-1.8864,-1.885,-1.884,-1.8837,-1.8856,-1.8841,-1.8779,-1.8769,-1.8759,-1.8757,-1.8855,-1.8855,-1.891,-1.891,-1.8911]},{"header":{"parameterUnit":"m.s-1","parameterCategory":1,"la1":30.2991,"la2":30.254,"lo1":-89.0895,"lo2":-89.0444,"dy":0.0017,"dx":0.0017,"nx":28,"ny":28,"refTime":"2023-07-24T21:00:00:Z","depth":0,"parameterNumber":3,"parameterNumberName":"V-component_of_WINDS"},"data":[0,0,0,0,0,0,0,0,0,0,0,0,0,0,0,0,0,0,0,0,0,0,0,0,0,0,0,0,0,0,0,0,0,0,0,0,0,0,0,0,0,0,0,0,0,0,0,0,0,0,0,0,0,0,0,0,0,0,-0.0981,-0.0981,0,-0.0974,-0.0974,-0.0974,-0.1003,-0.1003,-0.1004,-0.1005,-0.0996,-0.0995,-0.0994,0,0,0,0,0,0,0,0,0,0,0,0,0,-0.1017,-0.1016,-0.0981,-0.0981,-0.0981,-0.0974,-0.0974,-0.0974,-0.1002,-0.1003,-0.1004,-0.1005,-0.0997,-0.0996,-0.0994,0,0,0,0,0,0,0,0,0,0,0,0,0,-0.1005,-0.1016,-0.0981,-0.0994,-0.0995,-0.0974,-0.0974,-0.0974,-0.1002,-0.1003,-0.1005,-0.1006,-0.0997,-0.0996,-0.0994,-0.0959,0,0,-0.0989,-0.0989,0,0,0,0,0,0,0,0,-0.1006,-0.1004,-0.0992,-0.0993,-0.0994,-0.0991,-0.0984,-0.0969,-0.1002,-0.0999,-0.1005,-0.1007,-0.0993,-0.0992,-0.0988,-0.0959,-0.0959,-0.0989,-0.0988,-0.0988,-0.0987,0,0,0,0,0,0,0,-0.1006,-0.1004,-0.0978,-0.0992,-0.0993,-0.1,-0.1,-0.0981,-0.0989,-0.1,-0.1002,-0.1001,-0.0994,-0.0989,-0.0988,-0.0958,-0.0989,-0.0988,-0.0987,-0.0986,-0.0903,-0.0901,0,0,0,0,0,0,-0.1006,-0.1005,-0.0978,-0.0978,-0.1003,-0.0998,-0.0998,-0.099,-0.099,-0.0991,-0.1,-0.1002,-0.0991,-0.099,-0.0988,-0.0949,-0.0988,-0.0986,-0.0985,-0.0904,-0.0902,-0.0901,0,0,0,0,0,0,-0.1006,-0.1003,-0.0979,-0.0992,-0.0989,-0.0996,-0.0988,-0.099,-0.0985,-0.099,-0.0991,-0.0994,-0.0992,-0.099,-0.0967,-0.0949,-0.0986,-0.0984,-0.0905,-0.0903,-0.0902,-0.087,0,0,0,0,0,0,-0.1007,-0.1003,-0.099,-0.0991,-0.0988,-0.0958,-0.0986,-0.0989,-0.0983,-0.0986,-0.0984,-0.0985,-0.0993,-0.0969,-0.0965,-0.0948,-0.0983,-0.0907,-0.0904,-0.0902,-0.0873,-0.0867,-0.0863,0,0,0,0,0,-0.1009,-0.0981,-0.0989,-0.0986,-0.0972,-0.0957,-0.0955,-0.0966,-0.0981,-0.0968,-0.0971,-0.0985,-0.0951,-0.0966,-0.0962,-0.0944,-0.0908,-0.0905,-0.0902,-0.0875,-0.0868,-0.0863,0,0,0,0,0,0,-0.0977,-0.0981,-0.0991,-0.0963,-0.0959,-0.0962,-0.0946,-0.0958,-0.0949,-0.0953,-0.0965,-0.0964,-0.094,-0.0939,-0.0956,-0.0911,-0.0932,-0.0929,-0.0913,-0.0907,-0.0902,-0.0903,-0.0982,0,0,0,0,0,-0.0966,-0.0954,-0.0958,-0.0933,-0.0931,-0.0938,-0.0932,-0.094,-0.0937,-0.0936,-0.0937,-0.0933,-0.0921,-0.0914,-0.0903,-0.0872,-0.0873,-0.0858,-0.0852,-0.0848,-0.0845,-0.0831,-0.0825,-0.0891,-0.0891,-0.0891,0,0,-0.0945,-0.0946,-0.0937,-0.0927,-0.0925,-0.0912,-0.0937,-0.0921,-0.0912,-0.0933,-0.0912,-0.0913,-0.0909,-0.0882,-0.0871,-0.0881,-0.0827,-0.0844,-0.0841,-0.0841,-0.0827,-0.0821,-0.0815,-0.0889,-0.0889,-0.089,0,0,-0.09,-0.0899,-0.0879,-0.0877,-0.0874,-0.088,-0.0875,-0.0875,-0.0877,-0.0856,-0.0873,-0.0861,-0.084,-0.0838,-0.0834,-0.0788,-0.0802,-0.0784,-0.0758,-0.0744,-0.0739,-0.0735,-0.072,-0.0715,-0.0781,-0.0781,-0.0781,0,-0.0874,-0.0855,-0.0867,-0.0851,-0.0846,-0.0865,-0.0845,-0.0842,-0.0836,-0.0833,-0.0845,-0.0821,-0.0819,-0.0793,-0.0783,-0.0778,-0.0773,-0.0786,-0.0739,-0.0734,-0.073,-0.0717,-0.0712,-0.0779,-0.0779,-0.0779,-0.0779,0,-0.0824,-0.0811,-0.0795,-0.079,-0.0783,-0.0765,-0.0774,-0.0766,-0.0774,-0.0779,-0.0758,-0.0757,-0.0747,-0.0741,-0.0749,-0.0717,-0.0724,-0.0737,-0.0759,-0.0722,-0.071,-0.0705,-0.0776,-0.0777,-0.0777,-0.0778,0,0,-0.076,-0.0762,-0.0756,-0.0755,-0.0754,-0.0744,-0.0727,-0.0718,-0.0712,-0.0707,-0.0694,-0.0676,-0.0689,-0.0684,-0.0692,-0.0679,-0.0646,-0.0694,-0.0694,-0.0687,-0.0613,-0.0604,-0.0598,-0.0654,-0.0653,-0.0652,-0.0614,0,-0.0718,-0.069,-0.07,-0.0672,-0.0661,-0.0679,-0.0664,-0.0662,-0.0665,-0.0655,-0.0659,-0.0647,-0.0663,-0.0661,-0.0649,-0.0652,-0.0631,-0.0655,-0.0643,-0.0642,-0.0646,-0.0592,-0.0583,-0.0547,-0.0609,-0.0608,-0.0607,0,-0.0665,-0.066,-0.0631,-0.0633,-0.0629,-0.0616,-0.061,-0.06,-0.0598,-0.0601,-0.0596,-0.0607,-0.0591,-0.0611,-0.0589,-0.0605,-0.06,-0.0601,-0.06,-0.0601,-0.0624,-0.0593,-0.0535,-0.0531,-0.0599,-0.06,-0.0601,0,-0.0625,-0.0609,-0.0591,-0.0589,-0.059,-0.0581,-0.0581,-0.058,-0.0575,-0.0569,-0.0566,-0.0558,-0.0554,-0.0547,-0.0556,-0.0569,-0.0533,-0.0554,-0.0537,-0.0537,-0.053,-0.0531,-0.0473,-0.0523,-0.0523,-0.0523,-0.0523,0,-0.0578,-0.056,-0.0573,-0.0561,-0.0542,-0.0553,-0.0534,-0.0535,-0.0535,-0.0524,-0.0538,-0.0527,-0.0538,-0.0529,-0.0534,-0.0517,-0.0514,-0.0517,-0.0519,-0.0517,-0.0517,-0.0516,-0.0519,-0.0522,-0.0522,-0.0522,-0.0523,0,-0.053,-0.0537,-0.0519,-0.0522,-0.0522,-0.0508,-0.0511,-0.0501,-0.0505,-0.0491,-0.0489,-0.0495,-0.0485,-0.0492,-0.0481,-0.0486,-0.0463,-0.0468,-0.0465,-0.0467,-0.045,-0.0452,-0.0391,-0.0384,-0.0437,-0.0436,-0.0436,0,-0.0501,-0.0488,-0.049,-0.0485,-0.0484,-0.0475,-0.047,-0.048,-0.0475,-0.0472,-0.0462,-0.0453,-0.0447,-0.043,-0.0433,-0.0426,-0.0432,-0.041,-0.043,-0.0429,-0.0434,-0.0436,-0.0435,-0.0407,-0.0406,-0.0406,-0.0405,0,-0.0449,-0.0454,-0.0447,-0.0442,-0.0436,-0.0432,-0.0429,-0.0423,-0.0433,-0.0426,-0.0417,-0.0412,-0.0402,-0.0393,-0.0387,-0.0387,-0.0398,-0.0399,-0.0395,-0.0394,-0.0394,-0.0396,-0.0456,-0.0401,-0.0401,-0.0402,-0.0402,-0.0402,-0.0412,-0.0402,-0.0402,-0.0394,-0.0393,-0.039,-0.0382,-0.0385,-0.0377,-0.0371,-0.0377,-0.0366,-0.0365,-0.0358,-0.0356,-0.0348,-0.0356,-0.035,-0.0349,-0.0348,-0.0346,-0.0393,-0.0346,-0.0346,-0.0346,-0.0346,-0.0347,0,-0.0363,-0.0364,-0.0357,-0.0353,-0.0347,-0.0358,-0.0355,-0.035,-0.034,-0.0338,-0.0332,-0.0321,-0.0313,-0.0317,-0.031,-0.0302,-0.0307,-0.03,-0.0302,-0.0302,-0.0338,-0.0343,-0.0296,-0.0296,-0.0296,-0.0296,-0.0296,-0.0296,-0.0337,-0.0322,-0.0326,-0.031,-0.0312,-0.0302,-0.03,-0.0297,-0.0296,-0.0284,-0.0278,-0.028,-0.0281,-0.0274,-0.0267,-0.0268,-0.0266,-0.0257,-0.0261,-0.0294,-0.0299,-0.0304,-0.0309,-0.0256,-0.0256,-0.0226,-0.0226,-0.0226]}]]